When you browse on this site, cookies collect data to enhance your experience and personalize the content and advertising you see.
Visit our Privacy Policy to learn more. By continuing to use the site, you agree to this use of cookies and data.
  • In Hungary
  • List of Countries
  • For 7 days
  • Water Temperature
  • Satellite Maps
  • Weather Map
  • News
  • Weather Widgets
  • user-avatar
    Login

    Hourly Weather Tambakonda

    Today, 11 December, Tuesday

    Time Temperature Precipitation Wind Pressure Humidity
    00:00 +23°C° 0 mm 7 mps 737 mmHg 38%
    01:00 +22°C° 0 mm 8 mps 737 mmHg 38%
    02:00 +22°C° 0 mm 7 mps 737 mmHg 39%
    03:00 +22°C° 0 mm 7 mps 737 mmHg 39%
    04:00 +21°C° 0 mm 7 mps 737 mmHg 40%
    05:00 +21°C° 0 mm 7 mps 737 mmHg 41%
    06:00 +21°C° 0 mm 7 mps 737 mmHg 41%
    07:00 +21°C° 0 mm 7 mps 738 mmHg 41%
    08:00 +22°C° 0 mm 7 mps 738 mmHg 36%
    09:00 +24°C° 0 mm 7 mps 738 mmHg 31%
    10:00 +26°C° 0 mm 7 mps 738 mmHg 26%
    11:00 +27°C° 0 mm 6 mps 738 mmHg 23%
    12:00 +29°C° 0 mm 6 mps 737 mmHg 21%
    13:00 +30°C° 0 mm 5 mps 737 mmHg 18%
    14:00 +30°C° 0 mm 5 mps 736 mmHg 17%
    15:00 +30°C° 0 mm 5 mps 736 mmHg 16%
    16:00 +30°C° 0 mm 4 mps 736 mmHg 15%
    17:00 +28°C° 0 mm 4 mps 736 mmHg 17%
    18:00 +27°C° 0 mm 4 mps 736 mmHg 19%
    19:00 +26°C° 0 mm 4 mps 736 mmHg 22%
    20:00 +26°C° 0 mm 5 mps 737 mmHg 25%
    21:00 +24°C° 0 mm 6 mps 737 mmHg 29%
    22:00 +24°C° 0 mm 6 mps 738 mmHg 32%
    23:00 +24°C° 0 mm 6 mps 737 mmHg 33%

    Tomorrow, 12 December, Wednesday

    Time Temperature Precipitation Wind Pressure Humidity
    00:00 +23°C° 0 mm 7 mps 737 mmHg 34%
    01:00 +23°C° 0 mm 7 mps 737 mmHg 34%
    02:00 +23°C° 0 mm 7 mps 737 mmHg 34%
    03:00 +22°C° 0 mm 7 mps 737 mmHg 34%
    04:00 +22°C° 0 mm 7 mps 737 mmHg 35%
    05:00 +22°C° 0 mm 7 mps 737 mmHg 34%
    06:00 +22°C° 0 mm 7 mps 737 mmHg 34%
    07:00 +22°C° 0 mm 7 mps 738 mmHg 34%
    08:00 +23°C° 0 mm 7 mps 738 mmHg 30%
    09:00 +26°C° 0 mm 7 mps 738 mmHg 25%
    10:00 +28°C° 0 mm 7 mps 738 mmHg 21%
    11:00 +29°C° 0 mm 7 mps 738 mmHg 18%
    12:00 +30°C° 0 mm 6 mps 737 mmHg 16%
    13:00 +32°C° 0 mm 5 mps 737 mmHg 14%
    14:00 +32°C° 0 mm 5 mps 736 mmHg 13%
    15:00 +32°C° 0 mm 5 mps 736 mmHg 12%
    16:00 +32°C° 0 mm 4 mps 735 mmHg 11%
    17:00 +29°C° 0 mm 4 mps 736 mmHg 13%
    18:00 +28°C° 0 mm 5 mps 736 mmHg 15%
    19:00 +27°C° 0 mm 5 mps 737 mmHg 17%
    20:00 +26°C° 0 mm 5 mps 737 mmHg 21%
    21:00 +26°C° 0 mm 6 mps 737 mmHg 24%
    22:00 +26°C° 0 mm 6 mps 738 mmHg 27%
    23:00 +24°C° 0 mm 6 mps 738 mmHg 29%

    Day after tomorrow, 13 December, Thursday

    Time Temperature Precipitation Wind Pressure Humidity
    00:00 +24°C° 0 mm 6 mps 737 mmHg 30%
    01:00 +23°C° 0 mm 6 mps 737 mmHg 32%
    02:00 +23°C° 0 mm 6 mps 737 mmHg 33%
    03:00 +23°C° 0 mm 6 mps 737 mmHg 33%
    04:00 +22°C° 0 mm 6 mps 737 mmHg 34%
    05:00 +22°C° 0 mm 6 mps 737 mmHg 34%
    06:00 +22°C° 0 mm 6 mps 737 mmHg 34%
    07:00 +22°C° 0 mm 7 mps 738 mmHg 35%
    08:00 +24°C° 0 mm 7 mps 738 mmHg 29%
    09:00 +26°C° 0 mm 7 mps 738 mmHg 24%
    10:00 +28°C° 0 mm 6 mps 739 mmHg 19%
    11:00 +29°C° 0 mm 6 mps 738 mmHg 17%
    12:00 +30°C° 0 mm 5 mps 737 mmHg 14%
    13:00 +32°C° 0 mm 5 mps 736 mmHg 12%
    14:00 +32°C° 0 mm 5 mps 736 mmHg 11%
    15:00 +32°C° 0 mm 4 mps 735 mmHg 11%
    16:00 +32°C° 0 mm 4 mps 735 mmHg 10%
    17:00 +30°C° 0 mm 4 mps 735 mmHg 11%
    18:00 +29°C° 0 mm 4 mps 736 mmHg 13%
    19:00 +27°C° 0 mm 4 mps 736 mmHg 14%
    20:00 +27°C° 0 mm 5 mps 737 mmHg 18%
    21:00 +26°C° 0 mm 5 mps 737 mmHg 21%
    22:00 +26°C° 0 mm 6 mps 737 mmHg 25%
    23:00 +26°C° 0 mm 6 mps 737 mmHg 27%

    14 December, Friday

    Time Temperature Precipitation Wind Pressure Humidity
    00:00 +24°C° 0 mm 6 mps 737 mmHg 29%
    01:00 +23°C° 0 mm 6 mps 737 mmHg 31%
    02:00 +23°C° 0 mm 6 mps 736 mmHg 33%
    03:00 +23°C° 0 mm 5 mps 736 mmHg 34%
    04:00 +22°C° 0 mm 5 mps 736 mmHg 36%
    05:00 +22°C° 0 mm 6 mps 737 mmHg 37%
    06:00 +22°C° 0 mm 6 mps 737 mmHg 37%
    07:00 +22°C° 0 mm 6 mps 737 mmHg 38%
    08:00 +24°C° 0 mm 6 mps 738 mmHg 32%
    09:00 +27°C° 0 mm 6 mps 738 mmHg 25%
    10:00 +29°C° 0 mm 6 mps 738 mmHg 19%
    11:00 +30°C° 0 mm 6 mps 738 mmHg 17%
    12:00 +32°C° 0 mm 5 mps 737 mmHg 14%
    13:00 +33°C° 0 mm 4 mps 736 mmHg 12%
    14:00 +33°C° 0 mm 4 mps 735 mmHg 11%
    15:00 +33°C° 0 mm 4 mps 735 mmHg 10%
    16:00 +33°C° 0 mm 3 mps 734 mmHg 10%
    17:00 +32°C° 0 mm 4 mps 735 mmHg 11%
    18:00 +29°C° 0 mm 4 mps 735 mmHg 13%
    19:00 +27°C° 0 mm 4 mps 736 mmHg 14%
    20:00 +27°C° 0 mm 4 mps 736 mmHg 18%
    21:00 +27°C° 0 mm 5 mps 736 mmHg 21%
    22:00 +26°C° 0 mm 5 mps 736 mmHg 24%
    23:00 +26°C° 0 mm 5 mps 736 mmHg 27%

    15 December, Saturday

    Time Temperature Precipitation Wind Pressure Humidity
    00:00 +25°C° 0 mm 5 mps 736 mmHg 29%
    01:00 +25°C° 0 mm 5 mps 736 mmHg 32%
    02:00 +23°C° 0 mm 5 mps 735 mmHg 33%
    03:00 +23°C° 0 mm 5 mps 735 mmHg 34%
    04:00 +22°C° 0 mm 5 mps 735 mmHg 35%
    05:00 +22°C° 0 mm 5 mps 736 mmHg 36%
    06:00 +22°C° 0 mm 5 mps 736 mmHg 36%
    07:00 +22°C° 0 mm 6 mps 737 mmHg 37%
    08:00 +24°C° 0 mm 6 mps 737 mmHg 30%
    09:00 +27°C° 0 mm 6 mps 737 mmHg 24%
    10:00 +29°C° 0 mm 6 mps 737 mmHg 18%
    11:00 +32°C° 0 mm 5 mps 737 mmHg 16%
    12:00 +33°C° 0 mm 5 mps 736 mmHg 14%
    13:00 +34°C° 0 mm 4 mps 735 mmHg 12%
    14:00 +34°C° 0 mm 4 mps 735 mmHg 11%
    15:00 +34°C° 0 mm 4 mps 734 mmHg 11%
    16:00 +34°C° 0 mm 4 mps 734 mmHg 10%
    17:00 +32°C° 0 mm 4 mps 734 mmHg 12%
    18:00 +29°C° 0 mm 4 mps 735 mmHg 14%
    19:00 +28°C° 0 mm 4 mps 735 mmHg 15%
    20:00 +27°C° 0 mm 5 mps 736 mmHg 19%
    21:00 +27°C° 0 mm 5 mps 736 mmHg 22%
    22:00 +26°C° 0 mm 5 mps 737 mmHg 26%
    23:00 +26°C° 0 mm 5 mps 736 mmHg 27%

    16 December, Sunday

    Time Temperature Precipitation Wind Pressure Humidity
    00:00 +25°C° 0 mm 5 mps 736 mmHg 29%
    01:00 +25°C° 0 mm 5 mps 736 mmHg 30%
    02:00 +23°C° 0 mm 5 mps 736 mmHg 31%
    03:00 +23°C° 0 mm 5 mps 736 mmHg 31%
    04:00 +22°C° 0 mm 6 mps 736 mmHg 32%
    05:00 +22°C° 0 mm 6 mps 736 mmHg 32%
    06:00 +22°C° 0 mm 6 mps 736 mmHg 32%
    07:00 +22°C° 0 mm 6 mps 737 mmHg 31%
    08:00 +24°C° 0 mm 7 mps 737 mmHg 26%
    09:00 +26°C° 0 mm 8 mps 737 mmHg 20%
    10:00 +28°C° 0 mm 8 mps 738 mmHg 15%
    11:00 +29°C° 0 mm 8 mps 737 mmHg 13%
    12:00 +30°C° 0 mm 7 mps 737 mmHg 12%
    13:00 +32°C° 0 mm 7 mps 736 mmHg 10%
    14:00 +32°C° 0 mm 7 mps 736 mmHg 10%
    15:00 +32°C° 0 mm 6 mps 735 mmHg 9%
    16:00 +32°C° 0 mm 6 mps 735 mmHg 9%
    17:00 +29°C° 0 mm 6 mps 735 mmHg 12%
    18:00 +28°C° 0 mm 6 mps 736 mmHg 14%
    19:00 +26°C° 0 mm 6 mps 736 mmHg 17%
    20:00 +26°C° 0 mm 6 mps 737 mmHg 18%
    21:00 +26°C° 0 mm 6 mps 737 mmHg 20%
    22:00 +24°C° 0 mm 7 mps 737 mmHg 22%
    23:00 +23°C° 0 mm 7 mps 737 mmHg 23%
    Show more